Weather Roundup
Issued by NWS Chicago, IL

Home | Current Version | Previous Version | Graphics & Text | Print | Product List | Glossary On
Versions: 1 2 3 4 5 6 7 8 9 10 11 12 13 14 15 16 17 18 19 20 21 22 23 24 25 26 27 28 29 30 31 32 33 34 35 36 37 38 39 40 41 42 43 44 45 46 47 48 49 50
000
NZUS59 KLOT 200406
HRRLOT

CHICAGO AREA WEATHER ROUNDUP
NATIONAL WEATHER SERVICE CHICAGO/ROMEOVILLE IL
1100 PM CDT FRI SEP 19 2014

NOTE: "FAIR" INDICATES FEW OR NO CLOUDS BELOW 12,000 FEET WITH NO
SIGNIFICANT WEATHER AND/OR OBSTRUCTIONS TO VISIBILITY.

* THESE STATIONS ARE NOT UNDER NWS QUALITY CONTROL. THEY ALSO MAY NOT
  REPORT WEATHER SUCH AS PRECIPITATION OR FOG.

ILZ005-006-012>014-019>023-200500-
NORTHEAST ILLINOIS

CITY           SKY/WX    TMP DP  RH WIND       PRES   REMARKS
OHARE          PTCLDY    66  47  50 S14       29.95S
MIDWAY         PTCLDY    68  49  50 S14       29.96F
AURORA         CLEAR     60  49  66 S9        29.95F
LANSING*       CLEAR     60  50  68 S13       29.99F
JOLIET*        CLEAR     62  48  62 S7        29.99S
WAUKEGAN       CLEAR     64  47  53 S14       29.92F
DUPAGE AIRPORT CLEAR     63  49  60 S14       29.95F
WHEELING       CLEAR     66  47  50 S13       29.95F
KANKAKEE*      CLEAR     59  51  77 S9        30.01F
MORRIS*        CLEAR     60  52  74 S7        29.98S
LEWIS AIRPORT* CLEAR     61  49  65 S12       29.98S
NORTHERLY IS     N/A     67  46  47 S18         N/A
$$

WIZ051-052-058>065-066-070>072-200500-
SOUTHEAST WISCONSIN

CITY           SKY/WX    TMP DP  RH WIND       PRES   REMARKS
MILWAUKEE      PTCLDY    64  47  53 S12       29.89F
KENOSHA*       CLEAR     64  48  56 S13G20    29.92F
RACINE*        CLEAR     65  47  52 S9        29.92F
BURLINGTON     CLEAR     60  47  61 S12       29.91S
WAUKESHA       CLEAR     61  45  55 S10       29.90S
WEST BEND      CLEAR     63  45  51 S12       29.86S
$$

INZ001>003-010>013-019-020-200500-
NORTHWEST INDIANA

CITY           SKY/WX    TMP DP  RH WIND       PRES   REMARKS
GARY*          CLEAR     65  49  55 S9        29.98F
MICHIGAN CITY* NOT AVBL
RENSSELAER*    NOT AVBL
VALPARAISO     CLEAR     58  48  69 S7        30.02F
$$

LMZ740>746-200500-
SOUTHERN LAKE MICHIGAN

STATION/POSITION TIME  SKY/WX   TEMP WIND        PRES    VSBY
                                AIR  DIR/SP/G
                 (UTC)          (F)  (DEG/KT/KT) (MB)    (MI)
HARRISON CRIB    0400            66  180/ 22/ 26   N/A
BURNHAM HARBOR   0400            67  170/ 13/ 16   N/A
CALUMET HARBOR   0300            65  180/ 12/ 18 1013.7F
BURNS HARBOR     NOT AVBL
MICHIGAN CITY    0400            64  150/ 15/ 20   N/A
$$

ABBREVIATIONS USED IN REMARKS
   TC - TEMPERATURE IN CELSIUS
  WCI - WIND CHILL INDEX
   HX - HEAT INDEX
  VSB - VISIBILITY
$$


USA.gov is the U.S. government's official web portal to all federal, state and local government web resources and services.